STARLINK-34112, 63969

Orbit data source: Space-Track

STARLINK-34112, 63969 is a payload satellite owned by SpaceX/Seattle (US) in LEO that was launched on Tue, 13 May 2025 UTC via an FALCON 9 launch vehicle from the Air Force Eastern Test Range (AFETR). Payload-class satellites include a variety of spacecraft equipped with specific instruments for various scientific and technological missions. These include communications satellites like Starlink; space stations such as the ISS; scientific satellites like the Hubble; Earth observation satellites from companies like Planet Labs, Umbra, and HawkEye 360; GPS; miniature CubeSats for education and research; and military/defense satellites.

Loading next visibility...
Identifier
63969, 2025-099T
Orbit
LEO
Country
Flag of USUS
Related business
Manufacturer
SpaceX/Seattle
Mission
Operational Commercial Communications
Bus & Motor
STARLINK V2MO, Unknown motor
Mass
575 kg wet, ~530 kg dry
Launch date (UTC)
2025-05-13 (7 months ago)
Launch vehicle
FALCON 9
Launch site
Air Force Eastern Test Range (AFETR)
Object type
Payload
Rocket body
Debris
Shape & HBR
Box + 2 Pan, 17.7 m
Radar Cross Section
36.964 m², Large (>1 m²)

Expand to show TLE details & history
Last TLE update: 16 hours ago

TLE from 16 hours ago
0 STARLINK-34112
1 63969U 25099T   25346.61460753  .00087398  00000-0  31373-2 0  9994
2 63969  43.0030 307.5974 0002113 269.9660  90.0950 15.27692534 34021
Epoch: 2025-12-12T14:45Z
TLE epoch observation values (Epoch: 2025-12-12T14:45:02.090Z)
Latitude
Longitude
4.785°
Altitude
482.491 km
Speed
7.626 km/s
True Right ascension
20h 30m 23s
True Declination
0° 00' 00"
Sunlit
Object was in daylight at epoch
Visualization orbit readout
Latitude
Unknown
Longitude
Unknown
Altitude
Unknown
Speed
Unknown
Apparent Right ascension
Unknown
Apparent Declination
Unknown
Sunlit
N/A
Visualization observer readout
Local Sidereal Time
05:22:29
Azimuth
Unknown
Elevation
Unknown
Doppler factor
Unknown
Orbital elements
Apogee altitude
486.107 km
Perigee altitude
483.207 km
Semi-major axis
6,862.794 km
Eccentricity
0.00021
Inclination
43.003°
RAAN
307.5974°
Arg. of periapsis
269.966°
True anomaly
90.11921°
Mean anomaly
90.095°
Eccentric anomaly
90.10711°
Mean motion
3.81761 °/min
Orbital period
94.3 mins
BSTAR
0.0031373
Loading maneuver chart data...
Computing Atmospheric mass density...
Loading historical data...
Loading historical data...
Loading historical data...
Loading historical data...
Loading historical data...
Loading historical data...
Loading historical data...

Documentation

Showing up to 5 results
|